EGDX

Details ICAO EGDX
Name RAF St Athan
Region United Kingdom
Timezone Europe/London (UTC+1.0)
Plans Departing 7
Arriving 13
Stats Elevation 163 ft / 50 m (AMSL)
Location 51.405195° -3.433466°
Runways 1
Magnetic Variation 1.547° W
Sunrise 2018-05-21 04:15:41 UTC / 2018-05-21 05:15:41 Local
Sunset 2018-05-21 20:07:49 UTC / 2018-05-21 21:07:49 Local
Advertisement - Login to hide

Runways

ID Width Length Bearing (true) Bearing (mag) Surface Threshold Offset Overrun Length
08 135 ft / 41 m 5,968 ft / 1,819 m 73.01° 74.56° Asphalt 0 ft / 0 m 148 ft / 45 m
26 135 ft / 41 m 5,968 ft / 1,819 m 253.03° 254.58° Asphalt 0 ft / 0 m 174 ft / 53 m

Map

Weather


0- 5 10 15 20 25 30 35+ Temperature / ° C

Clouds and Precipitation
Forecast for 2018-05-21 18:00 UTC. Updated 10 minutes ago

Ground ~20,000 ft ~40,000 ft Winds

METAR

EGDX 211450Z 27007KT 9999 FEW045 20/10 Q1015 BLU

TAF

Not found

Frequencies

Tower 118.12 MHz TWR
Approach 125.85 MHz CARDIFF APP
Approach 126.62 MHz APP
Warning: Do not use this data for real-world aviation or navigation. No guarantee of current accuracy is given.